Location: ?????????
(48.2241°N, 37.5999°E)
Time: 03:37:07
(UTC+00:00)

Daily predictions for brighter satellites

Satellite Brightness Start Highest point End
(mag) Time Altitude Azimuth Time Altitude Azimuth Time Altitude Azimuth
USA 215 4.3 00:49:29 10° E 00:53:51 38° NE 00:53:51 38° NE
Cosmos 2369 Rocket 3.9 01:36:25 10° SSE 01:41:12 30° ESE 01:46:01 10° NE
CENTAUR R/B 2.6 01:42:43 72° E 01:42:43 72° E 01:49:29 10° NE
NOSS 3-2 (A) 3.5 01:56:50 66° NNE 01:56:50 66° NNE 02:02:36 10° NE
MOS 1-B Rocket 4.3 01:51:14 10° SSE 01:57:20 62° ENE 02:00:06 31° N
Cosmos 1151 Rocket 4.5 02:01:19 32° NE 02:02:20 36° ENE 02:06:23 10° SE
NOSS 3-2 (C) 3.4 02:03:30 66° S 02:04:11 74° SE 02:10:40 10° NE
Cosmos 1816 Rocket 4.3 02:05:59 80° W 02:06:00 80° W 02:12:21 10° N
Cosmos 1943 Rocket 2.2 02:07:22 71° NNE 02:07:22 71° NNE 02:12:26 10° NNE
CZ-2C R/B 3.3 02:03:34 10° SE 02:08:52 53° ENE 02:12:49 17° N
Envisat 3.8 02:13:00 10° NNE 02:17:58 50° E 02:22:53 10° S
Cosmos 1634 Rocket 3.9 02:19:00 10° N 02:25:20 89° W 02:31:34 10° S
Cosmos 2098 Rocket 3.8 02:21:48 10° SSE 02:25:39 53° E 02:30:33 10° NNE
Cosmos 968 Rocket 3.3 02:24:45 61° SSW 02:25:40 88° WNW 02:30:51 10° NNE
Cosmos 2297 3.6 02:27:09 62° WNW 02:27:09 62° WNW 02:32:49 10° NNE
COSMO-SKYMED 1 2.7 02:24:10 10° SSE 02:28:29 70° ENE 02:29:28 50° N
USA 238 DEB 3.5 02:30:09 46° WSW 02:32:14 73° NW 02:39:11 10° NE
USA 238 3.5 02:30:13 45° WSW 02:32:21 74° NW 02:39:17 10° NE
Iridium 2 3.9 02:30:24 10° S 02:34:09 67° E 02:37:55 10° N
Tsikada Rocket 3.9 02:29:47 10° SSW 02:35:55 62° WNW 02:42:11 10° N
Cosmos 2278 Rocket 4.0 02:38:01 16° NNW 02:38:01 16° NNW 02:39:58 10° N
Helios 1B 4.4 02:32:47 10° SSE 02:37:07 90° E 02:37:50 62° NNW
USA 215 3.2 02:31:51 10° ESE 02:38:24 90° N 02:41:12 38° NW
Meteor 2-6 Rocket 4.1 02:39:19 11° N 02:44:39 80° E 02:50:02 10° SSE
Cosmos 2344 3.7 02:43:59 38° W 02:46:30 51° NW 02:54:27 10° NE
Meteor 2-3 Rocket 3.9 02:50:21 31° WSW 02:52:34 46° WNW 02:58:07 10° N
SKYMED 3 4.4 02:48:16 10° S 02:52:36 68° W 02:53:51 44° NW
ATLAS 5 CENTAUR R/B 4.4 02:52:25 10° SSE 02:54:52 16° ESE 02:57:26 10° ENE
Cosmos 1515 Rocket 4.3 02:54:58 10° N 02:59:16 54° ENE 03:03:30 10° SSE
CZ-2C R/B 4.2 02:55:56 10° NNE 03:00:33 42° E 03:05:20 10° S
Cosmos 1833 4.1 02:57:20 24° NNW 03:00:58 84° WSW 03:06:42 10° SSE
FALCON 9 DEB 3.3 03:03:39 53° NNW 03:03:39 53° NNW 03:06:56 10° ENE
Meteor 1-10 Rocket 4.2 02:58:35 10° N 03:04:11 85° E 03:09:44 10° SSE
Meteor 2-8 Rocket 4.4 02:59:53 10° N 03:06:05 87° W 03:12:12 10° S
SJ 16-02 3.5 03:03:01 10° SSE 03:06:47 29° E 03:10:34 10° NE
Cosmos 1812 3.4 03:08:20 35° WSW 03:08:20 35° WSW 03:11:10 10° SSW
SL-8 R/B 3.9 03:07:56 36° W 03:09:43 61° SSW 03:14:26 10° ESE
Cosmos 2263 4.1 03:07:31 10° SSW 03:13:13 79° WNW 03:19:01 10° NNE
CZ-4B R/B 4.1 03:08:53 10° N 03:13:18 63° WNW 03:17:43 10° SSW
SKYMED 2 4.0 03:12:34 10° SSW 03:16:38 39° W 03:18:05 30° NW
Meteor PRIRODA 4.4 03:13:19 10° NNE 03:16:54 54° E 03:20:26 10° S
Landsat 5 3.8 03:12:33 10° S 03:16:56 50° W 03:19:56 19° NNW
FALCON 9 DEB 3.7 03:18:01 32° N 03:18:01 32° N 03:20:39 10° ENE
Cosmos 2297 Rocket 4.0 03:14:23 10° N 03:18:59 25° NE 03:23:34 10° E
CZ-4B R/B 3.5 03:17:56 10° SE 03:20:44 25° ENE 03:23:29 10° N
FALCON 9 DEB 3.7 03:23:16 29° NNW 03:23:26 30° N 03:26:02 10° ENE
FALCON 9 DEB 3.8 03:24:42 29° NNW 03:24:58 29° N 03:27:33 10° ENE
Cosmos 2369 Rocket 2.3 03:19:34 10° SW 03:24:59 49° NW 03:30:27 10° NNE
Cosmos 921 Rocket 4.4 03:26:25 21° WSW 03:26:25 21° WSW 03:29:21 10° SSW
Cosmos 783 Rocket 4.4 03:21:36 13° NNW 03:26:17 77° WSW 03:31:28 10° SSE
IRAS Rocket 4.1 03:21:23 10° SSE 03:26:54 78° WSW 03:32:25 10° NNW
SJ-7 4.4 03:23:36 10° NNE 03:27:50 90° W 03:32:00 10° SSW
Meteor 1-31 Rocket 3.1 03:24:38 10° N 03:28:19 41° WNW 03:31:59 10° SW
Cosmos 1503 Rocket 3.9 03:24:28 10° SSW 03:29:44 72° WNW 03:35:06 10° NNE
Geosat FO 4.4 03:28:00 10° SE 03:31:18 79° ENE 03:33:46 17° NNW
CENTAUR R/B 3.3 03:29:56 20° W 03:33:45 37° NNW 03:40:41 10° NE
CZ-4C R/B 3.4 03:31:15 10° SSW 03:34:07 33° W 03:34:51 29° WNW
H-2A R/B 2.1 03:30:30 10° SSE 03:34:46 81° ENE 03:39:10 10° NNW
DMSP B5D2-2 4.0 03:31:54 10° S 03:37:05 69° WSW 03:42:19 10° NNW
H-2A R/B 3.7 03:34:15 10° NNW 03:37:17 24° WNW 03:40:18 10° WSW
Okean 3 Rocket 4.0 03:33:00 10° SW 03:37:18 41° WNW 03:41:38 10° N
Cosmos 1486 Rocket 4.4 03:32:22 10° SW 03:37:21 40° WNW 03:42:20 10° N
Cosmos 1151 Rocket 4.1 03:38:14 20° WNW 03:39:42 24° W 03:43:14 10° SW
Cosmos 1777 Rocket 4.4 03:34:58 10° S 03:40:09 69° ESE 03:45:23 10° NNE
Cosmos 1862 4.0 03:38:43 10° SW 03:42:13 30° WNW 03:45:44 10° N
Cosmos 1656 Rocket 3.8 03:37:53 10° SW 03:43:07 48° NW 03:48:24 10° NNE
FALCON 9 DEB 3.8 03:42:59 23° NW 03:44:02 30° N 03:46:39 10° ENE
Alouette 2 Rocket 3.3 03:41:05 10° NNW 03:45:02 77° ENE 03:48:35 10° SSE
Cosmos 773 Rocket 4.0 03:40:36 10° NNW 03:45:46 60° WSW 03:50:50 10° S
Cosmos 1766 Rocket 4.3 03:43:36 10° SW 03:47:22 29° WNW 03:51:10 10° N
COSMOS 2487 3.0 03:44:04 10° NNW 03:47:23 54° ENE 03:50:40 10° SE
CZ-2C R/B 3.6 03:44:55 10° SSW 03:49:26 26° W 03:53:53 10° NW
Cosmos 1943 Rocket 3.5 03:48:57 16° WNW 03:51:21 20° NW 03:55:28 10° N
NOSS 2 (A) 4.2 03:51:35 17° NW 03:53:36 84° NE 03:56:05 10° SE
Cosmos 2227 Rocket 3.7 03:49:39 10° NNW 03:54:38 30° NE 03:59:34 10° ESE
NOSS 3-2 (C) 4.2 03:50:59 13° W 03:55:43 34° NNW 04:01:55 10° NE
Envisat 3.9 03:52:33 10° N 03:56:42 26° WNW 04:00:50 10° WSW
CZ-4B R/B 2.7 03:57:48 10° N 04:01:17 49° WNW 04:04:45 10° SSW
ATLAS 3B R/B 3.2 03:54:57 10° SSW 04:01:22 63° ESE 04:08:08 10° NE
Cosmos 1607 4.2 03:57:46 10° NW 04:04:04 71° NE 04:10:13 10° SE
COSMO-SKYMED 1 4.3 04:02:54 10° WSW 04:05:07 14° W 04:06:40 12° WNW
Nadezhda 4 Rocket 4.0 03:59:51 10° SSW 04:05:55 58° WNW 04:12:06 10° N
SL-27 R/B 3.3 04:02:57 11° NW 04:06:01 32° WSW 04:09:13 10° SSW
Lacrosse 4 Rocket 3.7 04:03:31 10° N 04:06:40 19° NE 04:09:50 10° E
NOAA 12 4.1 04:01:35 10° N 04:06:49 66° WNW 04:12:00 10° SSW
Meteor 1-27 Rocket 4.1 04:06:05 10° NNW 04:11:26 46° W 04:16:52 10° SSW
PSLV R/B 4.1 04:08:24 10° NNE 04:12:19 72° ESE 04:16:19 10° S
Cosmos 1602 3.6 04:10:09 10° S 04:13:57 83° W 04:17:48 10° N
Cosmos 158 Rocket 4.0 04:11:49 10° NNW 04:16:55 70° WSW 04:22:07 10° SSE
Cosmos 1174 3.0 04:15:03 10° SW 04:18:00 79° WNW 04:21:11 10° NE
Cosmos 2228 Rocket 3.2 04:15:26 10° NNW 04:19:53 62° W 04:24:20 10° S
SMAP 3.1 04:15:46 10° N 04:20:24 65° WNW 04:25:00 10° SSW
Cosmos 1092 Rocket 4.0 04:14:55 10° SSW 04:21:10 74° W 04:27:31 10° N
Cosmos 1408 Rocket 4.4 04:18:13 10° SW 04:21:52 26° WNW 04:25:32 10° NNW
USA 215 4.2 04:16:16 10° S 04:21:56 31° SW 04:27:38 10° WNW
Cosmos 1428 Rocket 4.5 04:19:01 10° SSW 04:25:09 79° W 04:31:19 10° N
PSLV R/B 4.0 04:22:20 10° S 04:26:22 64° WSW 04:30:27 10° NNW
Cosmos 2219 4.1 04:21:18 10° NNW 04:26:46 47° NE 04:32:14 10° SE
ADEOS 4.4 04:24:06 10° N 04:28:28 28° WNW 04:32:50 10° WSW
Cosmos 1743 Rocket 4.0 04:25:44 10° SW 04:29:51 39° WNW 04:33:58 10° N
